Satellite-Ground Cal/Val Region Overpasses Predictions

Prediction of Satellite NPP Overpassing Cal/Val Region: PacNW

Region Location: (Latitude: 10.00, Longitude: 139.50) to (Latitude: 22.70, Longitude: 165.60).

Table of predicted overpasses for the next 14.0 days since TLE Epoch: 9/15/2014
Interval Starting Time Starting Location Ending Time Ending Location
1 09/16/2014 02:41:30 ( 10.05, 161.41) 09/16/2014 02:45:05 ( 22.67, 158.40)
2 09/16/2014 15:13:23 ( 22.67, 158.66) 09/16/2014 15:16:58 ( 10.05, 155.66)
3 09/17/2014 02:23:12 ( 12.57, 165.59) 09/17/2014 02:26:04 ( 22.67, 163.16)
4 09/17/2014 04:03:59 ( 10.05, 140.79) 09/17/2014 04:05:33 ( 15.57, 139.51)
5 09/17/2014 14:54:22 ( 22.68, 163.42) 09/17/2014 14:57:57 ( 10.05, 160.41)
6 09/18/2014 03:44:57 ( 10.05, 145.55) 09/18/2014 03:48:32 ( 22.67, 142.55)
7 09/18/2014 14:38:24 ( 11.88, 165.59) 09/18/2014 14:38:55 ( 10.06, 165.17)
8 09/18/2014 16:16:50 ( 22.67, 142.80) 09/18/2014 16:20:25 ( 10.05, 139.80)
9 09/19/2014 03:25:56 ( 10.05, 150.31) 09/19/2014 03:29:31 ( 22.67, 147.30)
10 09/19/2014 15:57:49 ( 22.67, 147.56) 09/19/2014 16:01:24 ( 10.05, 144.55)
11 09/20/2014 03:06:54 ( 10.05, 155.07) 09/20/2014 03:10:29 ( 22.67, 152.06)
12 09/20/2014 15:38:47 ( 22.68, 152.32) 09/20/2014 15:42:22 ( 10.05, 149.31)
13 09/21/2014 02:47:53 ( 10.04, 159.83) 09/21/2014 02:51:28 ( 22.67, 156.82)
14 09/21/2014 15:19:46 ( 22.68, 157.08) 09/21/2014 15:23:21 ( 10.05, 154.07)
15 09/22/2014 02:28:52 ( 10.04, 164.58) 09/22/2014 02:32:27 ( 22.67, 161.58)
16 09/22/2014 15:00:44 ( 22.67, 161.84) 09/22/2014 15:04:19 ( 10.05, 158.83)
17 09/23/2014 03:51:20 ( 10.05, 143.97) 09/23/2014 03:54:55 ( 22.67, 140.96)
18 09/23/2014 14:42:52 ( 18.63, 165.60) 09/23/2014 14:45:18 ( 10.05, 163.59)
19 09/23/2014 16:23:13 ( 22.67, 141.22) 09/23/2014 16:25:13 ( 15.63, 139.51)
20 09/24/2014 03:32:19 ( 10.05, 148.73) 09/24/2014 03:35:54 ( 22.67, 145.72)
21 09/24/2014 16:04:11 ( 22.67, 145.98) 09/24/2014 16:07:46 ( 10.05, 142.97)
22 09/25/2014 03:13:17 ( 10.05, 153.48) 09/25/2014 03:16:52 ( 22.67, 150.48)
23
